Location: Gebenbach
(49.5378°N, 11.8735°E)
Time: 03:18:53
(UTC+00:00)

ERBS - Pass Details

Date: 29 October 2020
Orbit: 408 x 422 km, 57.0° (Epoch: 24 November)

Event Time Altitude Azimuth Distance (km) Brightness Sun altitude
Rises 16:42:03 0° 290° (WNW) 2,362 7.2 -8.2°
Reaches altitude 10° 16:44:27 10° 306° (NW) 1,502 5.7 -8.6°
Maximum altitude 16:47:09 22° 0° (N) 973 4.0 -9.0°
Enters shadow 16:49:43 11° 52° (NE) 1,459 4.4 -9.4°
